Home   Weather   Włocławek   Past weeks

Flag for Poland Past Weather in Włocławek, Poland — Yesterday and Last 2 Weeks

Now
45 °F

Cool.


Feels Like: 44 °F
Forecast: 38 / 53 °F
Wind: 3 mph from West

Location: Plock

Current Time: Apr 26, 2017 at 2:32:51 am

Latest Report: Apr 26, 2017 at 1:00 am


Visibility: N/A

Pressure: 29.77 "Hg

Humidity: 73%

Dew Point: 37 °F

Location of WłocławekLocation

Past Weather in Włocławek — Graph

°F

Włocławek Temperature Yesterday

Maximum temperature yesterday: 62 °F (at 2:00 pm)
Minimum temperature yesterday: 44 °F (at 4:00 am)
Average temperature yesterday: 51 °F

High & Low Weather Summary for the Past Weeks

 TemperatureHumidityPressure
High62 °F (Apr 25, 2:00 pm)95% (Apr 23, 9:00 pm)30.50 "Hg (Apr 23, 9:00 pm)
Low29 °F (Apr 17, 5:00 am)32% (Apr 23, 12:00 pm)29.57 "Hg (Apr 25, 3:00 pm)
Average42 °F71%29.96 "Hg
* Reported Apr 11 1:00 am — Apr 26 1:00 am, Włocławek, Weather by CustomWeather, © 2017

Note: Actual official high and low records may vary slightly from our data, if they occured in-between our weather recording intervals... More about our weather records

Advertising

Włocławek Weather History for the Previous 24 Hours

Scroll right to see more
 ConditionsComfort  
Time TempWeatherWind HumidityBarometerVisibility
1:00 am
Wed, Apr 26
45 °FCool.3 mph73%29.77 "HgN/A
12:00 am46 °FCool.6 mph69%29.76 "HgN/A
11:00 pm
Tue, Apr 25
47 °FCool.5 mph76%29.74 "HgN/A
10:00 pm47 °FCool.5 mph76%29.73 "HgN/A
9:00 pm47 °FCool.3 mph74%29.72 "HgN/A
8:00 pm49 °FCool.7 mph68%29.69 "HgN/A
7:00 pm51 °FCool.5 mph65%29.66 "HgN/A
6:00 pm53 °FCool.8 mph63%29.66 "HgN/A
5:00 pm60 °FRefreshingly cool.8 mph41%29.60 "HgN/A
4:00 pm61 °FRefreshingly cool.8 mph43%29.58 "HgN/A
3:00 pm61 °FRefreshingly cool.9 mph42%29.57 "HgN/A
2:00 pm62 °FRefreshingly cool.9 mph43%29.57 "HgN/A
1:00 pm62 °FRefreshingly cool.7 mph42%29.57 "HgN/A
12:00 pm60 °FRefreshingly cool.6 mph47%29.59 "HgN/A
11:00 am57 °FRefreshingly cool.7 mph50%29.61 "HgN/A
10:00 am54 °FCool.6 mph57%29.62 "HgN/A
9:00 am51 °FCool.6 mph62%29.65 "HgN/A
8:00 am47 °FCool.5 mph66%29.67 "HgN/A
7:00 am45 °FCool.3 mph65%29.68 "HgN/A
6:00 am44 °FQuite cool.3 mph66%29.70 "HgN/A
5:00 am44 °FQuite cool.3 mph67%29.72 "HgN/A
4:00 am44 °FQuite cool.3 mph67%29.73 "HgN/A
3:00 am44 °FQuite cool.3 mph67%29.75 "HgN/A
2:00 am44 °FQuite cool.3 mph66%29.78 "HgN/A
Weather by CustomWeather, © 2017

See weather overviewHow to use our weather pages